| time (UTC) | temp C | wind direction | speed KPH | gust KPH | rain 1hr cm | rain 24hr cm | rain mn cm | humidity % | barometer mb |
| 20260504213112 | 11 | 227 | 0.0 | 14.5 | 0.00 | 0.84 | 0.28 | 66 | 1005.9 |
| 20260504212114 | 11 | 227 | 3.2 | 14.5 | 0.00 | 0.86 | 0.28 | 64 | 1005.8 |
| 20260504211126 | 11 | 208 | 1.6 | 14.5 | 0.00 | 0.86 | 0.28 | 63 | 1005.6 |
| 20260504204954 | 12 | 252 | 6.4 | 22.5 | 0.00 | 0.97 | 0.28 | 59 | 1005.5 |
| 20260504203955 | 13 | 234 | 6.4 | 22.5 | 0.00 | 0.99 | 0.28 | 55 | 1005.5 |
| 20260504203018 | 13 | 246 | 6.4 | 27.4 | 0.00 | 1.09 | 0.28 | 51 | 1005.4 |
| 20260504200827 | 16 | 273 | 6.4 | 20.9 | 0.00 | 1.22 | 0.28 | 43 | 1004.9 |
| 20260504195816 | 17 | 282 | 3.2 | 19.3 | 0.00 | 1.22 | 0.28 | 37 | 1004.8 |
| 20260504194808 | 17 | 237 | 4.8 | 20.9 | 0.00 | 1.24 | 0.28 | 33 | 1004.6 |
| 20260504193824 | 16 | 263 | 6.4 | 20.9 | 0.00 | 1.27 | 0.28 | 34 | 1004.5 |
| 20260504192801 | 17 | 289 | 3.2 | 17.7 | 0.00 | 1.30 | 0.28 | 34 | 1004.5 |
| 20260504191754 | 17 | 277 | 4.8 | 17.7 | 0.00 | 1.35 | 0.28 | 33 | 1004.4 |
| 20260504190759 | 17 | 250 | 4.8 | 14.5 | 0.00 | 1.40 | 0.28 | 35 | 1004.1 |
| 20260504185820 | 17 | 279 | 3.2 | 14.5 | 0.00 | 1.40 | 0.28 | 36 | 1004.2 |
| 20260504183722 | 16 | 281 | 6.4 | 27.4 | 0.00 | 1.47 | 0.28 | 33 | 1004.2 |
| 20260504182739 | 16 | 277 | 6.4 | 17.7 | 0.00 | 1.52 | 0.28 | 34 | 1004.5 |
| 20260504180633 | 16 | 246 | 4.8 | 24.1 | 0.00 | 1.73 | 0.28 | 35 | 1004.3 |
| 20260504175622 | 16 | 313 | 6.4 | 20.9 | 0.00 | 1.80 | 0.28 | 34 | 1004.3 |
| 20260504174639 | 16 | 284 | 6.4 | 32.2 | 0.00 | 1.88 | 0.28 | 34 | 1004.5 |
| 20260504173648 | 15 | 190 | 8.0 | 32.2 | 0.00 | 1.91 | 0.28 | 37 | 1004.5 |
| 20260504172705 | 15 | 304 | 6.4 | 19.3 | 0.00 | 1.96 | 0.28 | 33 | 1004.5 |